TimeWET,TemperatureF,Dew PointF,Humidity,Sea Level PressureIn,VisibilityMPH,Wind Direction,Wind SpeedMPH,Gust SpeedMPH,PrecipitationIn,Events,Conditions,WindDirDegrees,DateUTC
6:00 AM,62,49,53,,12,Calm,Calm,,,,Partly Cloudy,,2012-11-06 06:00:00
6:00 AM,62.6,50.0,63,30.09,6.2,SE,2.3,-,N/A,,Scattered Clouds,140,2012-11-06 06:00:00
7:00 AM,60.8,48.2,63,30.12,6.2,Calm,Calm,-,N/A,,Scattered Clouds,0,2012-11-06 07:00:00
8:00 AM,66.2,48.2,52,30.12,6.2,WNW,4.6,-,N/A,,Scattered Clouds,300,2012-11-06 08:00:00
9:00 AM,72,48,32,,12,SSE,4.6,,,,Partly Cloudy,160,2012-11-06 09:00:00
9:00 AM,69.8,48.2,46,30.12,-9999.0,SSE,4.6,-,N/A,,Clear,160,2012-11-06 09:00:00
10:00 AM,75.2,41.0,29,30.15,-9999.0,SSE,4.6,-,N/A,,Clear,160,2012-11-06 10:00:00
11:00 AM,78.8,42.8,28,30.15,-9999.0,ESE,4.6,-,N/A,,Clear,120,2012-11-06 11:00:00
12:00 PM,80,42,16,,12,SE,4.6,,,,Scattered Clouds,140,2012-11-06 12:00:00
12:00 PM,80.6,42.8,26,30.12,6.2,SE,4.6,-,N/A,,Partly Cloudy,140,2012-11-06 12:00:00
1:00 PM,82.4,41.0,23,30.09,6.2,West,4.6,-,N/A,,Scattered Clouds,280,2012-11-06 13:00:00
2:00 PM,80.6,41.0,24,30.06,6.2,West,13.8,-,N/A,,Mostly Cloudy,280,2012-11-06 14:00:00
3:00 PM,83,39,12,,12,West,9.2,,,,Mostly Cloudy,280,2012-11-06 15:00:00
3:00 PM,84.2,39.2,20,30.06,6.2,West,9.2,-,N/A,,Mostly Cloudy,280,2012-11-06 15:00:00
4:00 PM,82.4,41.0,23,30.06,6.2,West,9.2,-,N/A,,Mostly Cloudy,260,2012-11-06 16:00:00
5:00 PM,82.4,42.8,25,30.06,6.2,SW,20.7,-,N/A,Rain,Rain Showers,220,2012-11-06 17:00:00
6:00 PM,76,46,23,,9,NE,6.9,,,Rain,Light Rain Showers,40,2012-11-06 18:00:00
6:00 PM,75.2,46.4,36,30.06,6.2,NE,6.9,-,N/A,,Partly Cloudy,40,2012-11-06 18:00:00
9:00 PM,72,54,42,,9,NNW,9.2,,,Rain,Light Rain Showers,340,2012-11-06 21:00:00
9:00 PM,71.6,53.6,53,30.15,6.2,NNW,9.2,-,N/A,,Partly Cloudy,340,2012-11-06 21:00:00